RH
8 17 24 31 31 32 30 19 12 10 8 9 10 11 10 18 30 50 56 30 16 21 29 33 27 31 44 59 65 70 71 72 72 69 63 60 61 66 70 73 75 76 77 84 82 82 77 74 73
10 20 28 34 28 32 28 17 14 9 10 11 11 10 10 25 26 43 56 31 15 20 29 29 28 28 41 50 60 67 73 76 77 75 66 64 65 66 69 76 80 85 83 82 82 94 72 70 75
21 24 32 35 29 28 26 15 12 9 10 9 9 9 9 20 28 30 42 35 19 26 29 27 27 28 34 48 57 63 72 79 81 77 70 68 70 69 72 77 78 77 81 80 77 81 72 76 80
22 33 35 28 28 20 15 12 9 9 9 8 7 9 15 17 26 33 40 39 39 46 30 24 23 27 37 50 57 64 70 78 82 79 74 71 73 70 72 77 81 80 78 79 85 82 78 75 78
27 31 35 30 24 15 11 9 8 9 7 9 8 8 20 20 24 32 40 41 43 55 55 32 26 29 38 53 61 68 69 71 79 79 75 74 75 72 73 80 80 77 62 56 79 76 78 78 80
31 29 32 33 24 16 11 9 8 8 7 8 8 9 17 27 27 29 36 41 43 53 56 40 35 33 37 56 63 69 68 72 78 82 81 78 78 75 76 81 81 76 62 49 80 60 58 60 71
37 35 30 27 21 17 13 10 10 9 9 8 8 9 12 26 28 29 36 40 44 51 56 47 48 44 44 59 67 67 68 69 76 78 81 84 80 77 76 81 76 73 62 64 66 58 60 60 63
32 36 39 30 24 21 13 11 9 8 10 7 8 10 14 24 32 34 41 48 54 59 60 48 56 54 54 67 68 67 67 66 70 74 80 84 82 80 77 78 76 76 73 66 64 66 66 61 69
22 39 42 36 29 22 15 15 11 7 7 7 6 8 28 30 35 50 61 63 68 72 72 65 61 61 59 66 70 68 67 65 65 69 78 83 83 81 77 78 79 78 74 66 73 72 65 59 64
32 37 37 26 22 21 16 15 13 9 8 8 7 28 26 31 40 60 71 81 75 76 82 81 76 72 79 76 73 70 71 66 65 65 76 82 84 81 79 79 80 79 78 74 71 67 64 60 59
22 37 26 24 22 20 21 18 14 13 11 10 10 30 30 30 42 48 64 74 77 73 77 83 85 80 86 85 77 74 76 74 69 67 69 81 84 85 84 84 84 83 85 88 73 67 64 64 61
17 16 24 25 20 19 21 18 17 16 12 10 10 18 28 28 35 44 47 64 73 78 78 79 78 80 84 80 77 78 83 84 80 76 73 82 77 87 84 84 84 80 85 79 73 74 75 74 73
22 15 13 16 19 19 18 20 18 18 15 11 10 10 24 24 27 29 30 46 60 72 75 78 74 80 80 79 78 78 82 83 81 85 85 80 78 86 87 83 77 78 78 78 74 78 80 79 74
23 20 16 14 16 19 20 19 18 16 16 13 12 11 13 24 21 19 23 24 51 63 70 73 74 71 74 85 77 78 84 82 78 80 87 84 82 84 88 88 85 80 76 76 79 79 82 82 78
17 22 19 20 16 16 17 22 20 16 16 16 14 13 13 14 16 15 11 13 17 51 64 70 73 67 75 73 77 75 75 80 80 85 90 87 82 86 88 88 86 84 83 84 90 91 87 86 84
22 24 27 19 20 16 18 28 19 16 16 16 17 16 14 14 13 10 10 8 8 19 66 67 70 70 77 72 78 74 73 75 80 86 87 97 91 87 85 87 86 84 84 84 89 96 100 97 91
25 37 28 24 20 20 20 24 20 17 18 17 16 15 16 14 14 12 10 8 7 10 57 66 75 74 72 80 78 79 76 76 89 86 85 86 95 91 87 84 83 79 83 81 78 100 97 99 86
31 38 32 28 23 21 22 22 18 20 19 18 18 16 15 15 14 14 12 9 8 8 48 67 76 83 76 79 86 85 83 80 87 87 79 80 82 89 95 94 88 85 82 84 99 99 97 92 92
24 31 34 25 20 40 46 38 33 24 22 19 19 17 16 15 14 13 12 9 8 10 63 74 83 89 84 86 90 88 87 80 78 83 81 83 80 84 89 93 96 92 88 86 87 100 96 100 94
25 28 31 24 23 64 81 74 59 54 44 35 22 18 22 18 19 15 16 13 12 12 49 81 84 87 84 85 92 83 80 90 79 82 88 84 80 81 86 90 95 97 98 91 94 98 100 99 97
37 24 22 22 59 72 76 72 59 45 34 29 23 15 18 20 18 25 31 32 28 26 36 80 80 78 83 76 86 85 82 82 81 84 82 86 86 85 82 87 95 97 99 100 100 100 99 93 100
32 18 16 18 73 94 81 87 60 45 37 29 23 18 18 32 38 40 44 46 47 52 50 46 80 93 95 90 90 83 87 87 88 87 86 82 84 82 86 89 91 97 100 100 99 100 100 98 98
48 20 19 19 91 80 96 98 73 54 50 26 22 38 41 42 44 48 50 50 56 58 60 59 59 64 80 86 86 88 89 86 84 86 88 84 87 86 84 92 96 96 100 100 100 100 100 98 96
41 54 64 74 67 92 65 75 61 52 45 27 47 50 48 48 52 54 55 60 64 63 65 66 64 68 72 81 86 84 84 88 88 90 85 82 88 92 95 98 99 98 100 100 100 100 100 99 97
43 51 94 96 98 88 48 72 50 36 36 47 52 49 52 55 58 61 64 67 69 71 73 72 76 72 72 95 90 84 81 81 85 82 85 95 98 98 99 98 98 100 99 100 100 100 100 99 99
56 57 85 79 86 65 39 59 45 42 58 55 51 60 57 59 60 64 65 69 74 74 76 81 86 86 79 88 91 86 81 78 80 79 85 94 100 96 98 98 100 95 98 100 100 100 100 100 100
45 59 50 81 94 88 56 70 47 60 81 62 71 64 66 63 64 68 69 72 76 78 83 86 90 97 85 64 92 80 77 75 72 75 74 86 98 99 85 98 100 100 100 100 100 100 100 100 99
32 39 67 96 91 93 80 81 84 88 94 80 74 75 76 75 75 74 74 75 78 82 91 91 95 100 59 83 84 78 79 75 72 69 73 84 88 89 92 100 100 98 100 99 100 100 100 100 100
48 90 81 79 87 97 96 99 92 92 90 85 81 80 80 80 78 77 77 78 81 87 93 96 98 100 99 90 84 78 84 84 73 68 78 85 89 93 95 100 100 100 100 99 100 100 100 100 100
58 65 79 89 99 100 98 99 95 87 77 77 77 75 74 73 75 76 78 84 85 89 94 97 98 100 100 100 87 86 86 84 74 77 85 86 89 97 100 100 99 100 98 98 100 99 98 95 98
Wind_Speed
8 8 4 3 3 2 5 9 16 19 7 3 5 7 4 3 4 4 14 29 30 26 23 20 18 16 14 13 13 13 13 11 11 10 11 11 11 11 13 14 15 15 14 15 17 14 14 13 13
8 6 4 1 3 2 6 18 19 15 5 3 7 6 8 3 6 13 12 27 27 25 23 20 18 16 14 12 12 12 13 12 11 10 10 10 11 11 12 13 15 14 12 11 12 12 12 13 15
8 7 3 4 4 7 6 12 14 12 4 3 3 4 4 6 6 11 31 25 26 23 21 20 17 15 13 12 12 12 13 13 12 11 11 11 11 12 12 13 12 11 10 8 8 9 11 14 15
3 2 4 3 10 9 18 19 16 12 5 5 2 3 4 17 8 21 33 25 23 21 20 17 16 15 13 13 12 13 13 13 13 12 12 11 12 12 12 13 15 16 16 18 10 7 8 10 12
6 2 3 5 11 13 18 21 18 11 10 6 6 3 6 4 34 42 37 31 26 23 19 16 15 15 13 13 13 13 14 13 13 13 13 12 12 13 14 18 19 21 21 16 12 12 9 8 8
2 2 2 12 17 14 14 17 18 13 9 4 5 4 5 21 32 37 36 32 25 25 20 18 16 15 14 14 14 14 14 13 13 13 13 13 14 14 18 19 20 19 13 12 21 16 10 9 12
5 2 8 12 12 13 16 14 10 20 11 6 7 6 4 12 36 35 35 32 27 22 19 19 18 17 15 15 16 15 14 13 13 13 13 14 16 16 17 18 17 16 19 23 15 16 17 21 19
4 4 16 18 14 21 17 22 14 13 10 2 8 2 4 3 34 33 34 29 25 21 17 18 18 17 16 16 17 17 16 15 14 14 13 14 16 18 19 20 20 19 19 20 17 21 22 21 20
5 9 19 31 17 16 10 13 20 6 4 2 1 5 9 25 36 31 31 29 24 18 17 16 17 17 16 16 17 17 16 16 15 14 14 15 17 18 20 23 22 20 21 18 22 22 19 21 20
7 7 39 6 14 17 19 20 23 4 5 4 1 8 16 23 25 19 18 18 23 23 20 18 18 19 18 16 17 17 17 16 16 16 17 17 18 19 21 22 23 22 23 24 22 22 22 20 23
10 24 26 19 17 20 25 25 18 9 7 7 11 11 11 8 11 13 18 26 26 25 22 23 21 19 21 21 17 17 17 17 17 17 18 19 20 20 21 23 25 24 23 24 26 24 20 21 21
15 30 23 25 21 25 26 21 15 9 12 10 12 13 11 11 11 10 15 24 27 30 30 28 25 24 25 22 20 18 18 18 17 17 18 22 21 23 24 27 27 25 23 27 24 23 22 21 20
22 25 23 26 21 26 28 29 24 23 12 9 8 8 11 15 13 23 26 26 34 32 36 34 30 29 28 26 22 21 21 22 19 19 19 22 23 26 27 27 25 24 26 27 25 25 24 22 22
11 20 24 23 22 26 26 28 19 28 9 10 6 6 8 13 11 15 23 27 29 35 40 39 36 34 31 25 26 23 25 24 23 21 22 22 25 25 28 28 26 26 28 27 27 28 27 24 25
19 23 22 22 28 27 20 25 29 21 9 9 9 8 7 11 13 11 27 25 29 36 42 42 38 36 35 31 29 27 24 24 24 25 21 23 26 25 25 28 27 27 26 26 27 27 27 26 26
20 20 19 24 22 22 17 26 28 11 12 16 11 8 9 10 9 19 30 29 28 24 38 43 41 38 38 36 27 30 29 27 25 27 25 25 26 27 27 28 31 28 25 26 33 32 30 28 27
12 19 21 23 20 15 16 25 19 12 12 14 15 12 10 10 12 20 24 32 33 31 41 43 40 42 41 36 32 29 29 25 25 27 26 25 29 28 29 29 29 28 24 26 29 29 28 29 29
18 14 20 22 16 18 22 25 22 6 15 22 17 15 16 15 18 21 31 34 38 37 43 43 42 41 39 39 27 27 28 27 23 28 28 26 26 29 31 28 26 25 23 27 28 27 28 30 30
18 21 19 15 24 5 5 10 8 14 21 16 16 18 19 19 16 24 27 37 33 28 38 40 38 37 37 38 30 29 30 31 30 22 28 27 25 25 27 29 29 28 27 29 30 28 29 26 29
23 23 23 18 16 3 9 12 12 12 11 15 21 13 9 13 8 15 14 21 21 17 30 36 39 40 39 39 31 30 27 27 26 23 20 27 26 26 27 27 28 28 28 31 33 32 23 19 31
24 21 18 20 3 5 4 7 7 13 16 18 19 14 8 8 8 8 9 15 17 16 10 24 41 44 42 39 36 25 24 19 23 27 26 22 26 26 26 28 29 28 29 30 33 34 31 25 29
19 19 22 23 5 3 2 4 7 8 11 15 14 8 8 10 13 14 14 13 23 25 28 22 26 30 32 36 33 36 30 22 24 25 28 29 28 27 29 29 29 28 30 29 35 34 34 27 28
21 18 21 21 5 6 6 2 6 6 10 8 12 17 15 17 17 17 16 19 23 26 24 26 22 14 37 37 36 34 27 28 25 26 28 29 26 31 28 27 27 28 29 31 34 34 33 37 32
22 1 6 4 2 3 11 11 5 2 15 7 22 21 18 17 16 17 21 27 28 32 32 28 26 25 11 40 38 37 31 28 25 29 30 30 28 28 25 26 27 29 29 31 35 36 36 34 32
12 9 1 3 4 4 13 11 7 8 16 17 22 19 19 17 17 18 20 18 28 29 32 32 28 30 26 28 36 37 36 32 33 33 31 27 28 26 28 24 27 27 28 29 32 33 32 33 35
5 7 5 5 3 3 9 6 3 13 15 22 20 19 18 17 16 18 17 19 25 28 30 34 34 31 28 18 30 34 32 32 32 34 31 30 29 26 25 25 24 22 21 28 31 33 31 34 35
6 6 1 3 2 2 3 2 2 17 18 17 19 19 19 18 17 16 17 23 26 28 30 32 36 36 28 24 30 32 29 33 30 33 34 32 28 26 24 26 22 17 17 21 26 27 36 31 32
7 2 4 3 1 4 5 6 3 13 14 12 19 19 17 17 20 19 17 22 23 24 26 30 32 34 18 25 31 30 26 29 30 33 32 28 26 24 25 27 23 20 20 22 25 24 31 37 33
4 3 5 2 2 4 4 3 3 7 14 15 17 17 18 17 17 15 15 22 22 22 23 27 29 30 12 20 25 19 19 17 28 33 31 29 24 24 27 28 25 24 23 22 26 24 29 31 30
7 5 1 2 3 1 2 4 16 16 17 18 18 18 15 16 15 15 16 21 23 23 25 29 30 31 28 11 14 18 14 16 28 31 28 25 24 23 27 28 25 26 25 24 26 27 25 27 30
Wind_Direction
219 204 283 311 40 103 247 251 240 274 276 306 87 79 122 118 99 170 141 133 136 142 148 149 142 141 152 158 161 167 173 182 183 177 168 166 158 158 150 147 144 145 144 142 144 141 146 143 143
201 179 223 274 135 267 270 248 255 275 199 96 61 51 49 63 89 129 117 136 143 145 149 148 145 142 150 157 159 165 174 184 187 181 174 173 161 164 159 153 149 144 137 140 139 137 141 139 138
199 205 99 155 199 216 243 261 274 289 284 101 90 83 97 110 100 147 142 139 147 147 150 147 145 144 149 155 158 163 173 182 184 180 177 175 167 172 166 161 149 130 118 107 118 129 135 135 137
214 342 316 184 239 251 237 264 275 304 267 119 107 107 75 140 128 135 142 142 138 149 151 145 142 141 145 152 157 164 169 177 183 183 182 177 174 173 166 152 153 153 132 115 86 91 115 132 145
237 283 218 225 239 249 257 265 271 280 291 201 139 242 125 93 142 142 144 147 150 157 162 150 145 140 144 151 156 163 165 175 185 187 187 184 182 178 165 171 165 152 127 121 147 131 123 146 162
273 183 244 229 241 253 259 259 272 262 264 169 112 114 168 136 136 145 146 146 155 158 164 159 151 144 145 155 159 162 162 167 177 187 190 192 185 183 173 177 177 178 202 178 160 158 159 216 173
216 263 244 252 253 263 257 265 259 267 244 218 160 144 163 140 147 149 148 151 155 162 166 165 157 151 150 155 163 163 164 165 170 178 185 193 185 183 174 181 184 177 172 173 185 194 208 196 170
233 259 260 252 243 252 259 267 268 295 215 175 131 199 177 157 149 143 141 143 151 160 167 170 166 159 156 161 166 165 168 168 169 174 180 183 185 179 180 185 185 177 181 189 182 182 184 184 171
289 256 249 242 239 247 280 282 281 268 128 123 269 141 149 138 146 132 132 138 143 157 169 178 174 170 162 165 170 169 170 173 173 178 177 175 180 180 179 183 187 182 179 177 172 183 191 182 177
211 248 247 309 249 257 265 267 276 240 219 209 185 71 128 135 139 136 144 148 157 164 170 183 183 174 164 165 176 172 176 178 176 178 174 174 178 181 181 181 181 185 178 176 179 181 177 192 187
237 241 254 255 270 256 270 272 280 286 243 195 201 159 146 139 153 155 165 167 177 181 182 185 187 182 177 177 177 175 182 181 181 178 174 171 172 178 178 174 177 179 178 182 179 187 207 204 203
244 245 251 256 258 270 270 288 281 289 248 208 189 162 160 161 173 183 181 179 174 180 190 193 195 189 185 187 185 180 179 180 180 180 176 174 175 179 181 180 177 180 185 184 193 200 201 208 212
236 258 260 256 254 246 262 262 267 275 273 259 192 171 180 176 179 187 202 192 186 182 192 195 195 193 190 198 186 182 184 184 181 184 184 178 180 181 181 186 194 193 193 196 198 200 204 206 200
255 256 257 261 259 247 253 259 260 261 265 258 254 247 184 175 190 193 198 212 192 189 193 198 194 193 190 192 186 183 190 188 185 190 192 184 182 188 190 189 193 199 196 199 204 205 209 206 205
263 265 270 254 252 259 256 266 248 253 262 267 243 244 258 188 197 199 206 208 225 191 194 195 197 193 190 191 191 187 185 184 185 187 184 193 187 188 190 191 190 192 196 201 208 213 215 212 214
276 269 263 256 255 255 256 258 254 255 243 258 261 246 231 254 215 210 215 213 227 217 185 193 196 193 191 188 192 195 196 198 201 201 194 194 191 191 189 190 193 199 207 212 213 214 208 207 206
252 248 250 264 240 250 232 255 259 240 241 239 240 239 229 229 242 250 244 226 220 228 187 189 193 195 194 185 194 200 201 205 204 202 200 202 199 194 198 199 200 202 204 207 213 202 198 195 197
253 254 247 256 263 233 247 250 252 238 226 248 252 243 232 220 221 229 234 234 223 227 189 188 193 192 193 184 186 193 196 199 203 205 202 201 204 205 205 205 209 210 205 206 211 203 198 197 196
260 271 246 251 250 252 345 288 290 216 242 252 236 235 235 218 212 222 223 224 216 218 176 180 182 190 187 184 178 177 187 194 202 209 211 203 204 207 210 215 219 219 212 211 215 199 195 189 193
243 254 266 276 264 57 5 312 322 305 276 268 269 236 231 192 216 215 188 205 202 206 179 177 182 186 190 186 186 181 185 190 206 200 195 209 211 208 209 214 216 217 215 214 207 197 183 184 187
248 242 254 254 99 79 10 291 251 271 275 266 267 231 201 178 166 71 72 63 54 49 108 178 184 192 191 193 186 178 183 199 213 215 219 209 201 204 214 214 215 214 211 201 200 194 185 181 186
241 245 244 252 186 225 123 303 290 240 263 240 265 247 188 88 71 62 50 40 37 28 22 33 194 187 188 188 176 177 182 189 209 212 215 217 219 217 216 216 217 210 208 200 201 197 190 182 181
268 242 254 237 130 137 181 288 269 253 276 250 237 90 63 58 51 46 40 34 24 18 17 4 10 222 197 193 187 180 183 194 202 207 214 216 213 212 208 210 216 216 204 209 208 199 192 185 186
275 134 49 42 74 222 179 186 266 233 238 209 75 56 60 50 41 36 28 24 11 1 358 355 349 335 254 198 192 188 185 185 188 195 205 209 207 197 201 207 213 217 218 215 212 208 193 187 183
227 137 72 173 195 221 174 181 212 334 101 79 103 87 67 48 40 30 23 14 2 356 349 342 338 321 334 214 191 193 191 191 189 194 200 194 190 199 207 213 218 216 220 221 213 193 186 184 182
165 149 169 186 180 157 170 227 319 139 79 80 65 72 65 54 41 33 20 9 357 348 345 336 327 315 304 266 193 193 193 194 189 194 197 192 194 203 203 207 212 216 215 219 210 203 192 186 183
203 192 225 68 196 64 156 66 93 93 49 66 78 61 49 41 37 28 16 5 352 348 340 329 320 308 286 264 205 188 194 195 195 195 199 198 197 199 209 202 206 210 208 212 209 199 195 182 181
153 120 65 39 356 207 168 129 108 70 73 32 62 57 50 41 32 22 12 0 353 345 336 331 322 317 246 220 196 191 197 194 200 186 189 191 195 201 208 200 200 196 200 203 198 194 191 194 192
55 32 40 64 191 338 179 106 53 81 107 73 59 54 49 40 29 16 7 1 354 348 347 343 344 359 25 194 200 201 199 200 193 183 188 190 194 196 205 202 199 196 188 189 189 182 173 170 174
325 154 14 134 195 190 2 71 95 85 73 62 54 55 49 43 30 18 7 360 2 356 359 360 358 6 4 344 227 217 210 188 181 176 180 181 186 196 196 202 202 202 195 188 197 191 187 184 182